Time,TemperatureF,DewpointF,PressureIn,WindDirection,WindDirectionDegrees,WindSpeedMPH,WindSpeedGustMPH,Humidity,HourlyPrecipIn,Conditions,Clouds,dailyrainin,SoftwareType,DateUTC
2013-02-01 00:00:00,2.3,-2.7,30.29,West,280,15.0,15.0,79,0.00,,,0.00,Wunderground v.1.15,2013-02-01 06:00:00,
2013-02-01 00:04:00,2.3,-2.7,30.29,WNW,300,15.0,17.0,79,0.00,,,0.00,Wunderground v.1.15,2013-02-01 06:04:00,
2013-02-01 00:06:00,2.3,-2.7,30.29,WNW,287,14.0,17.0,79,0.00,,,0.00,Wunderground v.1.15,2013-02-01 06:06:00,
2013-02-01 00:08:00,2.3,-2.7,30.30,NW,309,13.0,17.0,79,0.00,,,0.00,Wunderground v.1.15,2013-02-01 06:08:00,
2013-02-01 00:10:00,2.3,-2.5,30.29,West,276,13.0,13.0,80,0.00,,,0.00,Wunderground v.1.15,2013-02-01 06:10:00,
2013-02-01 00:14:00,2.3,-2.5,30.30,WNW,298,12.0,16.0,80,0.00,,,0.00,Wunderground v.1.15,2013-02-01 06:14:00,
2013-02-01 00:16:00,2.3,-2.5,30.30,West,280,12.0,16.0,80,0.00,,,0.00,Wunderground v.1.15,2013-02-01 06:16:00,
2013-02-01 00:18:00,2.2,-2.8,30.30,WNW,291,12.0,16.0,79,0.00,,,0.00,Wunderground v.1.15,2013-02-01 06:18:00,
2013-02-01 00:20:00,2.2,-2.8,30.30,NW,309,12.0,12.0,79,0.00,,,0.00,Wunderground v.1.15,2013-02-01 06:20:00,
2013-02-01 00:24:00,2.1,-2.7,30.30,WSW,250,12.0,18.0,80,0.00,,,0.00,Wunderground v.1.15,2013-02-01 06:24:00,
2013-02-01 00:28:00,2.0,-3.0,30.30,WNW,298,12.0,18.0,79,0.00,,,0.00,Wunderground v.1.15,2013-02-01 06:28:00,
2013-02-01 00:30:00,2.0,-3.0,30.30,WNW,291,12.0,15.0,79,0.00,,,0.00,Wunderground v.1.15,2013-02-01 06:30:00,
2013-02-01 00:36:00,1.9,-3.1,30.31,West,281,12.0,22.0,79,0.00,,,0.00,Wunderground v.1.15,2013-02-01 06:36:00,
2013-02-01 00:38:00,1.9,-3.1,30.31,WNW,292,12.0,22.0,79,0.00,,,0.00,Wunderground v.1.15,2013-02-01 06:38:00,
2013-02-01 00:42:00,1.9,-3.1,30.31,WNW,285,12.0,16.0,79,0.00,,,0.00,Wunderground v.1.15,2013-02-01 06:42:00,
2013-02-01 00:44:00,1.9,-3.1,30.31,SW,231,12.0,16.0,79,0.00,,,0.00,Wunderground v.1.15,2013-02-01 06:44:00,
2013-02-01 00:48:00,1.9,-3.1,30.32,West,276,11.0,16.0,79,0.00,,,0.00,Wunderground v.1.15,2013-02-01 06:48:00,
2013-02-01 00:50:00,1.9,-3.1,30.31,WNW,297,11.0,15.0,79,0.00,,,0.00,Wunderground v.1.15,2013-02-01 06:50:00,
2013-02-01 00:54:00,1.9,-3.1,30.31,WNW,297,12.0,15.0,79,0.00,,,0.00,Wunderground v.1.15,2013-02-01 06:54:00,
2013-02-01 00:56:00,1.8,-3.2,30.32,WNW,285,13.0,15.0,79,0.00,,,0.00,Wunderground v.1.15,2013-02-01 06:56:00,
2013-02-01 01:02:00,1.8,-3.2,30.32,WNW,292,13.0,17.0,79,0.00,,,0.00,Wunderground v.1.15,2013-02-01 07:02:00,
2013-02-01 01:04:00,1.7,-3.3,30.32,West,267,13.0,17.0,79,0.00,,,0.00,Wunderground v.1.15,2013-02-01 07:04:00,
2013-02-01 01:08:00,1.8,-3.2,30.32,West,274,14.0,17.0,79,0.00,,,0.00,Wunderground v.1.15,2013-02-01 07:08:00,
2013-02-01 01:10:00,1.8,-3.2,30.32,WSW,257,13.0,14.0,79,0.00,,,0.00,Wunderground v.1.15,2013-02-01 07:10:00,
2013-02-01 01:14:00,1.8,-2.7,30.32,WNW,282,13.0,14.0,81,0.00,,,0.00,Wunderground v.1.15,2013-02-01 07:14:00,
2013-02-01 01:18:00,1.9,-2.8,30.32,WNW,288,14.0,18.0,80,0.00,,,0.00,Wunderground v.1.15,2013-02-01 07:18:00,
2013-02-01 01:20:00,1.8,-2.9,30.32,NW,311,15.0,15.0,80,0.00,,,0.00,Wunderground v.1.15,2013-02-01 07:20:00,
2013-02-01 01:22:00,1.8,-2.9,30.32,West,264,15.0,17.0,80,0.00,,,0.00,Wunderground v.1.15,2013-02-01 07:22:00,
2013-02-01 01:28:00,1.6,-3.4,30.33,WNW,295,14.0,17.0,79,0.00,,,0.00,Wunderground v.1.15,2013-02-01 07:28:00,
2013-02-01 01:30:00,1.5,-3.5,30.33,WNW,287,14.0,17.0,79,0.00,,,0.00,Wunderground v.1.15,2013-02-01 07:30:00,
2013-02-01 01:32:00,1.5,-3.5,30.33,WNW,284,14.0,17.0,79,0.00,,,0.00,Wunderground v.1.15,2013-02-01 07:32:00,
2013-02-01 01:34:00,1.5,-3.2,30.33,WNW,293,13.0,17.0,80,0.00,,,0.00,Wunderground v.1.15,2013-02-01 07:34:00,
2013-02-01 01:38:00,1.5,-3.2,30.33,West,271,12.0,17.0,80,0.00,,,0.00,Wunderground v.1.15,2013-02-01 07:38:00,
2013-02-01 01:40:00,1.5,-3.2,30.33,WNW,285,11.0,15.0,80,0.00,,,0.00,Wunderground v.1.15,2013-02-01 07:40:00,
2013-02-01 01:42:00,1.5,-3.5,30.33,WSW,254,12.0,16.0,79,0.00,,,0.00,Wunderground v.1.15,2013-02-01 07:42:00,
2013-02-01 01:44:00,1.4,-3.6,30.33,NW,325,13.0,16.0,79,0.00,,,0.00,Wunderground v.1.15,2013-02-01 07:44:00,
2013-02-01 01:46:00,1.4,-3.6,30.33,WNW,285,13.0,16.0,79,0.00,,,0.00,Wunderground v.1.15,2013-02-01 07:46:00,
2013-02-01 01:48:00,1.4,-3.3,30.34,WNW,302,13.0,16.0,80,0.00,,,0.00,Wunderground v.1.15,2013-02-01 07:48:00,
2013-02-01 01:52:00,1.4,-3.3,30.34,West,278,12.0,13.0,80,0.00,,,0.00,Wunderground v.1.15,2013-02-01 07:52:00,
2013-02-01 01:56:00,1.4,-3.1,30.34,West,277,10.0,13.0,81,0.00,,,0.00,Wunderground v.1.15,2013-02-01 07:56:00,
2013-02-01 01:58:00,1.4,-3.1,30.34,WNW,291,10.0,20.0,81,0.00,,,0.00,Wunderground v.1.15,2013-02-01 07:58:00,
2013-02-01 02:04:00,1.3,-3.4,30.34,WSW,258,12.0,17.0,80,0.00,,,0.00,Wunderground v.1.15,2013-02-01 08:04:00,
2013-02-01 02:08:00,1.2,-3.5,30.34,WNW,300,13.0,17.0,80,0.00,,,0.00,Wunderground v.1.15,2013-02-01 08:08:00,
2013-02-01 02:12:00,1.2,-3.5,30.35,West,264,14.0,15.0,80,0.00,,,0.00,Wunderground v.1.15,2013-02-01 08:12:00,
2013-02-01 02:14:00,1.3,-3.4,30.35,WSW,252,13.0,15.0,80,0.00,,,0.00,Wunderground v.1.15,2013-02-01 08:14:00,
2013-02-01 02:16:00,1.2,-3.3,30.35,WNW,287,13.0,18.0,81,0.00,,,0.00,Wunderground v.1.15,2013-02-01 08:16:00,
2013-02-01 02:18:00,1.2,-3.3,30.35,West,281,12.0,18.0,81,0.00,,,0.00,Wunderground v.1.15,2013-02-01 08:18:00,
2013-02-01 02:24:00,1.1,-3.4,30.35,West,269,12.0,16.0,81,0.00,,,0.00,Wunderground v.1.15,2013-02-01 08:24:00,
2013-02-01 02:28:00,1.0,-3.5,30.35,WNW,288,13.0,16.0,81,0.00,,,0.00,Wunderground v.1.15,2013-02-01 08:28:00,
2013-02-01 02:30:00,1.0,-3.5,30.35,WNW,292,14.0,16.0,81,0.00,,,0.00,Wunderground v.1.15,2013-02-01 08:30:00,
2013-02-01 02:34:00,1.0,-3.5,30.35,WNW,284,14.0,16.0,81,0.00,,,0.00,Wunderground v.1.15,2013-02-01 08:34:00,
2013-02-01 02:36:00,1.0,-3.7,30.36,WNW,284,14.0,17.0,80,0.00,,,0.00,Wunderground v.1.15,2013-02-01 08:36:00,
2013-02-01 02:40:00,1.0,-3.5,30.36,West,278,14.0,14.0,81,0.00,,,0.00,Wunderground v.1.15,2013-02-01 08:40:00,
2013-02-01 02:44:00,0.9,-3.6,30.36,WNW,292,13.0,15.0,81,0.00,,,0.00,Wunderground v.1.15,2013-02-01 08:44:00,
2013-02-01 02:48:00,0.8,-3.7,30.36,WNW,293,13.0,17.0,81,0.00,,,0.00,Wunderground v.1.15,2013-02-01 08:48:00,
2013-02-01 02:52:00,0.8,-3.7,30.36,West,264,13.0,15.0,81,0.00,,,0.00,Wunderground v.1.15,2013-02-01 08:52:00,
2013-02-01 02:54:00,0.7,-3.8,30.36,West,278,13.0,16.0,81,0.00,,,0.00,Wunderground v.1.15,2013-02-01 08:54:00,
2013-02-01 02:56:00,0.7,-3.8,30.36,West,270,13.0,16.0,81,0.00,,,0.00,Wunderground v.1.15,2013-02-01 08:56:00,
2013-02-01 03:00:00,0.6,-3.9,30.36,WNW,300,12.0,12.0,81,0.00,,,0.00,Wunderground v.1.15,2013-02-01 09:00:00,
2013-02-01 03:02:00,0.6,-3.6,30.36,West,271,12.0,14.0,82,0.00,,,0.00,Wunderground v.1.15,2013-02-01 09:02:00,
2013-02-01 03:06:00,0.5,-4.2,30.36,West,280,13.0,17.0,80,0.00,,,0.00,Wunderground v.1.15,2013-02-01 09:06:00,
2013-02-01 03:10:00,0.4,-4.3,30.36,NW,304,14.0,14.0,80,0.00,,,0.00,Wunderground v.1.15,2013-02-01 09:10:00,
2013-02-01 03:12:00,0.5,-4.2,30.36,WNW,295,15.0,15.0,80,0.00,,,0.00,Wunderground v.1.15,2013-02-01 09:12:00,
2013-02-01 03:18:00,0.6,-3.9,30.37,WNW,292,13.0,15.0,81,0.00,,,0.00,Wunderground v.1.15,2013-02-01 09:18:00,
2013-02-01 03:20:00,0.6,-3.9,30.36,WNW,300,13.0,16.0,81,0.00,,,0.00,Wunderground v.1.15,2013-02-01 09:20:00,
2013-02-01 03:22:00,0.5,-4.2,30.36,WNW,292,13.0,16.0,80,0.00,,,0.00,Wunderground v.1.15,2013-02-01 09:22:00,
2013-02-01 03:26:00,0.5,-4.2,30.36,WNW,302,13.0,16.0,80,0.00,,,0.00,Wunderground v.1.15,2013-02-01 09:26:00,
2013-02-01 03:30:00,0.4,-4.3,30.37,West,263,13.0,13.0,80,0.00,,,0.00,Wunderground v.1.15,2013-02-01 09:30:00,
2013-02-01 03:32:00,0.4,-4.3,30.37,WNW,295,12.0,13.0,80,0.00,,,0.00,Wunderground v.1.15,2013-02-01 09:32:00,
2013-02-01 03:34:00,0.4,-4.1,30.37,West,269,11.0,13.0,81,0.00,,,0.00,Wunderground v.1.15,2013-02-01 09:34:00,
2013-02-01 03:38:00,0.4,-4.1,30.37,WNW,285,10.0,15.0,81,0.00,,,0.00,Wunderground v.1.15,2013-02-01 09:38:00,
2013-02-01 03:40:00,0.4,-4.1,30.37,WNW,298,10.0,10.0,81,0.00,,,0.00,Wunderground v.1.15,2013-02-01 09:40:00,
2013-02-01 03:42:00,0.4,-3.8,30.37,West,276,10.0,10.0,82,0.00,,,0.00,Wunderground v.1.15,2013-02-01 09:42:00,
2013-02-01 03:46:00,0.3,-4.2,30.37,NW,324,10.0,12.0,81,0.00,,,0.00,Wunderground v.1.15,2013-02-01 09:46:00,
2013-02-01 03:48:00,0.3,-4.2,30.37,NW,309,9.0,12.0,81,0.00,,,0.00,Wunderground v.1.15,2013-02-01 09:48:00,
2013-02-01 03:54:00,0.2,-4.3,30.37,WNW,298,11.0,14.0,81,0.00,,,0.00,Wunderground v.1.15,2013-02-01 09:54:00,
2013-02-01 03:56:00,0.2,-4.3,30.37,WNW,287,11.0,14.0,81,0.00,,,0.00,Wunderground v.1.15,2013-02-01 09:56:00,
2013-02-01 04:02:00,0.2,-4.0,30.37,West,274,10.0,10.0,82,0.00,,,0.00,Wunderground v.1.15,2013-02-01 10:02:00,
2013-02-01 04:06:00,0.1,-4.1,30.37,WNW,293,10.0,10.0,82,0.00,,,0.00,Wunderground v.1.15,2013-02-01 10:06:00,
2013-02-01 04:12:00,0.0,-4.4,30.37,WNW,300,12.0,14.0,81,0.00,,,0.00,Wunderground v.1.15,2013-02-01 10:12:00,
2013-02-01 04:14:00,0.0,-4.4,30.37,WNW,302,13.0,14.0,81,0.00,,,0.00,Wunderground v.1.15,2013-02-01 10:14:00,
2013-02-01 04:18:00,0.0,-4.2,30.37,WNW,293,12.0,14.0,82,0.00,,,0.00,Wunderground v.1.15,2013-02-01 10:18:00,
2013-02-01 04:20:00,0.0,-4.2,30.38,WNW,300,12.0,12.0,82,0.00,,,0.00,Wunderground v.1.15,2013-02-01 10:20:00,
2013-02-01 04:22:00,0.0,-4.2,30.38,West,277,11.0,13.0,82,0.00,,,0.00,Wunderground v.1.15,2013-02-01 10:22:00,
2013-02-01 04:26:00,-0.1,-4.5,30.38,WNW,284,10.0,15.0,81,0.00,,,0.00,Wunderground v.1.15,2013-02-01 10:26:00,
2013-02-01 04:28:00,-0.1,-4.5,30.38,WNW,294,10.0,15.0,81,0.00,,,0.00,Wunderground v.1.15,2013-02-01 10:28:00,
2013-02-01 04:34:00,-0.2,-4.6,30.38,WNW,289,11.0,13.0,81,0.00,,,0.00,Wunderground v.1.15,2013-02-01 10:34:00,
2013-02-01 04:36:00,-0.2,-4.6,30.38,West,277,10.0,13.0,81,0.00,,,0.00,Wunderground v.1.15,2013-02-01 10:36:00,
2013-02-01 04:40:00,-0.3,-4.7,30.38,WNW,295,11.0,13.0,81,0.00,,,0.00,Wunderground v.1.15,2013-02-01 10:40:00,
2013-02-01 04:42:00,-0.3,-4.7,30.38,WNW,292,11.0,13.0,81,0.00,,,0.00,Wunderground v.1.15,2013-02-01 10:42:00,
2013-02-01 04:44:00,-0.3,-4.7,30.38,WNW,287,11.0,13.0,81,0.00,,,0.00,Wunderground v.1.15,2013-02-01 10:44:00,
2013-02-01 04:46:00,-0.3,-4.7,30.38,WNW,291,11.0,13.0,81,0.00,,,0.00,Wunderground v.1.15,2013-02-01 10:46:00,
2013-02-01 04:48:00,-0.3,-4.7,30.38,West,262,10.0,13.0,81,0.00,,,0.00,Wunderground v.1.15,2013-02-01 10:48:00,
2013-02-01 04:50:00,-0.3,-4.7,30.38,WNW,294,11.0,11.0,81,0.00,,,0.00,Wunderground v.1.15,2013-02-01 10:50:00,
2013-02-01 04:54:00,-0.4,-4.8,30.38,WNW,284,10.0,11.0,81,0.00,,,0.00,Wunderground v.1.15,2013-02-01 10:54:00,
2013-02-01 04:56:00,-0.4,-4.8,30.38,WNW,285,9.0,11.0,81,0.00,,,0.00,Wunderground v.1.15,2013-02-01 10:56:00,
2013-02-01 04:58:00,-0.4,-4.8,30.38,West,277,10.0,11.0,81,0.00,,,0.00,Wunderground v.1.15,2013-02-01 10:58:00,
2013-02-01 05:00:00,-0.5,-4.9,30.38,NW,307,9.0,9.0,81,0.00,,,0.00,Wunderground v.1.15,2013-02-01 11:00:00,
2013-02-01 05:04:00,-0.5,-4.9,30.38,WNW,284,9.0,9.0,81,0.00,,,0.00,Wunderground v.1.15,2013-02-01 11:04:00,
2013-02-01 05:08:00,-0.5,-4.9,30.38,WNW,289,10.0,17.0,81,0.00,,,0.00,Wunderground v.1.15,2013-02-01 11:08:00,
2013-02-01 05:10:00,-0.6,-5.3,30.38,WNW,293,10.0,16.0,80,0.00,,,0.00,Wunderground v.1.15,2013-02-01 11:10:00,
2013-02-01 05:12:00,-0.7,-5.4,30.38,NW,319,11.0,16.0,80,0.00,,,0.00,Wunderground v.1.15,2013-02-01 11:12:00,
2013-02-01 05:14:00,-0.7,-5.4,30.39,WNW,294,12.0,16.0,80,0.00,,,0.00,Wunderground v.1.15,2013-02-01 11:14:00,
2013-02-01 05:18:00,-0.7,-5.4,30.39,WNW,292,13.0,16.0,80,0.00,,,0.00,Wunderground v.1.15,2013-02-01 11:18:00,
2013-02-01 05:20:00,-0.7,-5.1,30.39,WNW,283,12.0,12.0,81,0.00,,,0.00,Wunderground v.1.15,2013-02-01 11:20:00,
2013-02-01 05:22:00,-0.7,-5.1,30.39,WNW,298,12.0,12.0,81,0.00,,,0.00,Wunderground v.1.15,2013-02-01 11:22:00,
2013-02-01 05:24:00,-0.7,-5.1,30.39,WNW,300,11.0,12.0,81,0.00,,,0.00,Wunderground v.1.15,2013-02-01 11:24:00,
2013-02-01 05:28:00,-0.7,-4.9,30.39,SW,236,9.0,12.0,82,0.00,,,0.00,Wunderground v.1.15,2013-02-01 11:28:00,
2013-02-01 05:30:00,-0.7,-4.9,30.39,WSW,245,9.0,12.0,82,0.00,,,0.00,Wunderground v.1.15,2013-02-01 11:30:00,
2013-02-01 05:32:00,-0.7,-4.9,30.40,West,278,8.0,12.0,82,0.00,,,0.00,Wunderground v.1.15,2013-02-01 11:32:00,
2013-02-01 05:34:00,-0.7,-5.1,30.40,West,277,8.0,12.0,81,0.00,,,0.00,Wunderground v.1.15,2013-02-01 11:34:00,
2013-02-01 05:38:00,-0.7,-5.1,30.40,WNW,285,9.0,12.0,81,0.00,,,0.00,Wunderground v.1.15,2013-02-01 11:38:00,
2013-02-01 05:40:00,-0.8,-5.2,30.40,West,274,10.0,10.0,81,0.00,,,0.00,Wunderground v.1.15,2013-02-01 11:40:00,
2013-02-01 05:44:00,-0.8,-5.2,30.40,WSW,249,9.0,10.0,81,0.00,,,0.00,Wunderground v.1.15,2013-02-01 11:44:00,
2013-02-01 05:46:00,-0.8,-5.2,30.40,West,263,9.0,10.0,81,0.00,,,0.00,Wunderground v.1.15,2013-02-01 11:46:00,
2013-02-01 05:50:00,-0.9,-5.6,30.40,WNW,298,10.0,10.0,80,0.00,,,0.00,Wunderground v.1.15,2013-02-01 11:50:00,
2013-02-01 05:52:00,-0.9,-5.6,30.40,West,276,10.0,11.0,80,0.00,,,0.00,Wunderground v.1.15,2013-02-01 11:52:00,
2013-02-01 05:54:00,-1.0,-5.7,30.40,WNW,284,11.0,11.0,80,0.00,,,0.00,Wunderground v.1.15,2013-02-01 11:54:00,
2013-02-01 05:58:00,-1.0,-5.7,30.40,WNW,300,11.0,14.0,80,0.00,,,0.00,Wunderground v.1.15,2013-02-01 11:58:00,
2013-02-01 06:00:00,-1.0,-5.7,30.40,West,269,11.0,11.0,80,0.00,,,0.00,Wunderground v.1.15,2013-02-01 12:00:00,
2013-02-01 06:02:00,-1.0,-5.4,30.40,WNW,293,11.0,12.0,81,0.00,,,0.00,Wunderground v.1.15,2013-02-01 12:02:00,
2013-02-01 06:04:00,-1.0,-5.4,30.40,WNW,283,10.0,12.0,81,0.00,,,0.00,Wunderground v.1.15,2013-02-01 12:04:00,
2013-02-01 06:10:00,-1.1,-5.5,30.40,NW,307,9.0,14.0,81,0.00,,,0.00,Wunderground v.1.15,2013-02-01 12:10:00,
2013-02-01 06:12:00,-1.0,-5.4,30.40,WNW,300,10.0,14.0,81,0.00,,,0.00,Wunderground v.1.15,2013-02-01 12:12:00,
2013-02-01 06:14:00,-1.0,-5.4,30.40,WNW,302,10.0,14.0,81,0.00,,,0.00,Wunderground v.1.15,2013-02-01 12:14:00,
2013-02-01 06:18:00,-1.0,-5.4,30.40,WNW,301,11.0,14.0,81,0.00,,,0.00,Wunderground v.1.15,2013-02-01 12:18:00,
2013-02-01 06:20:00,-1.1,-5.5,30.40,WNW,283,11.0,11.0,81,0.00,,,0.00,Wunderground v.1.15,2013-02-01 12:20:00,
2013-02-01 06:24:00,-1.2,-5.9,30.41,WNW,292,11.0,19.0,80,0.00,,,0.00,Wunderground v.1.15,2013-02-01 12:24:00,
2013-02-01 06:28:00,-1.2,-5.9,30.41,WNW,291,12.0,19.0,80,0.00,,,0.00,Wunderground v.1.15,2013-02-01 12:28:00,
2013-02-01 06:30:00,-1.2,-5.9,30.41,West,278,12.0,13.0,80,0.00,,,0.00,Wunderground v.1.15,2013-02-01 12:30:00,
2013-02-01 06:34:00,-1.2,-5.9,30.40,WNW,301,13.0,13.0,80,0.00,,,0.00,Wunderground v.1.15,2013-02-01 12:34:00,
2013-02-01 06:38:00,-1.3,-6.0,30.40,WNW,289,12.0,14.0,80,0.00,,,0.00,Wunderground v.1.15,2013-02-01 12:38:00,
2013-02-01 06:40:00,-1.3,-6.0,30.41,NW,307,12.0,14.0,80,0.00,,,0.00,Wunderground v.1.15,2013-02-01 12:40:00,
2013-02-01 06:46:00,-1.3,-5.7,30.41,WNW,295,12.0,14.0,81,0.00,,,0.00,Wunderground v.1.15,2013-02-01 12:46:00,
2013-02-01 06:52:00,-1.2,-5.4,30.41,West,262,11.0,12.0,82,0.00,,,0.00,Wunderground v.1.15,2013-02-01 12:52:00,
2013-02-01 06:54:00,-1.3,-5.5,30.42,West,277,10.0,12.0,82,0.00,,,0.00,Wunderground v.1.15,2013-02-01 12:54:00,
2013-02-01 06:56:00,-1.3,-5.7,30.42,West,281,9.0,12.0,81,0.00,,,0.00,Wunderground v.1.15,2013-02-01 12:56:00,
2013-02-01 07:00:00,-1.4,-5.8,30.41,WNW,295,9.0,10.0,81,0.00,,,0.00,Wunderground v.1.15,2013-02-01 13:00:00,
2013-02-01 07:02:00,-1.4,-5.8,30.42,West,278,9.0,10.0,81,0.00,,,0.00,Wunderground v.1.15,2013-02-01 13:02:00,
2013-02-01 07:06:00,-1.4,-6.1,30.42,WNW,286,10.0,14.0,80,0.00,,,0.00,Wunderground v.1.15,2013-02-01 13:06:00,
2013-02-01 07:12:00,-1.4,-6.1,30.42,WNW,289,11.0,13.0,80,0.00,,,0.00,Wunderground v.1.15,2013-02-01 13:12:00,
2013-02-01 07:18:00,-1.4,-5.8,30.42,WNW,300,10.0,13.0,81,0.00,,,0.00,Wunderground v.1.15,2013-02-01 13:18:00,
2013-02-01 07:22:00,-1.4,-5.6,30.42,WNW,284,9.0,11.0,82,0.00,,,0.00,Wunderground v.1.15,2013-02-01 13:22:00,
2013-02-01 07:24:00,-1.3,-5.7,30.42,WSW,257,9.0,12.0,81,0.00,,,0.00,Wunderground v.1.15,2013-02-01 13:24:00,
2013-02-01 07:28:00,-1.2,-5.6,30.42,WNW,289,10.0,12.0,81,0.00,,,0.00,Wunderground v.1.15,2013-02-01 13:28:00,
2013-02-01 07:30:00,-1.2,-5.6,30.42,NW,307,10.0,10.0,81,0.00,,,0.00,Wunderground v.1.15,2013-02-01 13:30:00,
2013-02-01 07:32:00,-1.2,-5.6,30.42,WNW,296,11.0,12.0,81,0.00,,,0.00,Wunderground v.1.15,2013-02-01 13:32:00,
2013-02-01 07:34:00,-1.2,-5.6,30.42,West,262,11.0,12.0,81,0.00,,,0.00,Wunderground v.1.15,2013-02-01 13:34:00,
2013-02-01 07:40:00,-1.2,-5.9,30.43,West,278,11.0,13.0,80,0.00,,,0.00,Wunderground v.1.15,2013-02-01 13:40:00,
2013-02-01 07:44:00,-1.2,-6.1,30.42,WNW,301,11.0,13.0,79,0.00,,,0.00,Wunderground v.1.15,2013-02-01 13:44:00,
2013-02-01 07:46:00,-1.2,-5.9,30.43,NW,305,11.0,13.0,80,0.00,,,0.00,Wunderground v.1.15,2013-02-01 13:46:00,
2013-02-01 07:48:00,-1.1,-5.8,30.42,West,281,11.0,13.0,80,0.00,,,0.00,Wunderground v.1.15,2013-02-01 13:48:00,
2013-02-01 07:52:00,-1.1,-5.8,30.42,WNW,292,11.0,13.0,80,0.00,,,0.00,Wunderground v.1.15,2013-02-01 13:52:00,
2013-02-01 07:58:00,-1.0,-5.7,30.43,WNW,298,10.0,13.0,80,0.00,,,0.00,Wunderground v.1.15,2013-02-01 13:58:00,
2013-02-01 08:02:00,-0.9,-5.3,30.43,WNW,294,9.0,10.0,81,0.00,,,0.00,Wunderground v.1.15,2013-02-01 14:02:00,
2013-02-01 08:04:00,-0.9,-5.3,30.42,NW,309,8.0,10.0,81,0.00,,,0.00,Wunderground v.1.15,2013-02-01 14:04:00,
2013-02-01 08:10:00,-0.7,-5.4,30.42,WNW,293,7.0,7.0,80,0.00,,,0.00,Wunderground v.1.15,2013-02-01 14:10:00,
2013-02-01 08:12:00,-0.7,-5.1,30.42,WNW,297,8.0,9.0,81,0.00,,,0.00,Wunderground v.1.15,2013-02-01 14:12:00,
2013-02-01 08:16:00,-0.6,-5.3,30.42,West,266,8.0,9.0,80,0.00,,,0.00,Wunderground v.1.15,2013-02-01 14:16:00,
2013-02-01 08:18:00,-0.6,-5.3,30.42,WNW,295,7.0,9.0,80,0.00,,,0.00,Wunderground v.1.15,2013-02-01 14:18:00,
2013-02-01 08:24:00,-0.5,-5.2,30.43,WNW,302,8.0,12.0,80,0.00,,,0.00,Wunderground v.1.15,2013-02-01 14:24:00,
2013-02-01 08:30:00,-0.5,-5.2,30.43,West,260,8.0,8.0,80,0.00,,,0.00,Wunderground v.1.15,2013-02-01 14:30:00,
2013-02-01 08:32:00,-0.5,-5.2,30.43,West,269,9.0,9.0,80,0.00,,,0.00,Wunderground v.1.15,2013-02-01 14:32:00,
2013-02-01 08:36:00,-0.3,-5.0,30.43,WNW,298,8.0,10.0,80,0.00,,,0.00,Wunderground v.1.15,2013-02-01 14:36:00,
2013-02-01 08:38:00,-0.3,-5.3,30.43,NW,309,8.0,10.0,79,0.00,,,0.00,Wunderground v.1.15,2013-02-01 14:38:00,
2013-02-01 08:42:00,-0.3,-5.3,30.43,WNW,298,9.0,9.0,79,0.00,,,0.00,Wunderground v.1.15,2013-02-01 14:42:00,
2013-02-01 08:44:00,-0.2,-5.2,30.43,West,281,9.0,11.0,79,0.00,,,0.00,Wunderground v.1.15,2013-02-01 14:44:00,
2013-02-01 08:46:00,-0.1,-5.1,30.44,West,263,9.0,11.0,79,0.00,,,0.00,Wunderground v.1.15,2013-02-01 14:46:00,
2013-02-01 08:48:00,0.0,-5.0,30.43,NW,309,9.0,12.0,79,0.00,,,0.00,Wunderground v.1.15,2013-02-01 14:48:00,
2013-02-01 08:52:00,0.1,-4.9,30.43,West,260,9.0,9.0,79,0.00,,,0.00,Wunderground v.1.15,2013-02-01 14:52:00,
2013-02-01 08:56:00,0.2,-4.8,30.44,WNW,298,8.0,9.0,79,0.00,,,0.00,Wunderground v.1.15,2013-02-01 14:56:00,
2013-02-01 08:58:00,0.2,-5.0,30.44,West,260,8.0,10.0,78,0.00,,,0.00,Wunderground v.1.15,2013-02-01 14:58:00,
2013-02-01 09:02:00,0.2,-5.0,30.44,SW,235,8.0,11.0,78,0.00,,,0.00,Wunderground v.1.15,2013-02-01 15:02:00,
2013-02-01 09:06:00,0.3,-4.9,30.44,WNW,295,9.0,11.0,78,0.00,,,0.00,Wunderground v.1.15,2013-02-01 15:06:00,
2013-02-01 09:12:00,0.5,-4.5,30.44,SW,231,9.0,9.0,79,0.00,,,0.00,Wunderground v.1.15,2013-02-01 15:12:00,
2013-02-01 09:14:00,0.6,-4.4,30.44,West,267,9.0,9.0,79,0.00,,,0.00,Wunderground v.1.15,2013-02-01 15:14:00,
2013-02-01 09:16:00,0.7,-4.3,30.44,WNW,282,9.0,9.0,79,0.00,,,0.00,Wunderground v.1.15,2013-02-01 15:16:00,
2013-02-01 09:18:00,0.8,-3.9,30.44,West,281,8.0,9.0,80,0.00,,,0.00,Wunderground v.1.15,2013-02-01 15:18:00,
2013-02-01 09:20:00,1.0,-3.7,30.44,West,276,8.0,8.0,80,0.00,,,0.00,Wunderground v.1.15,2013-02-01 15:20:00,
2013-02-01 09:24:00,1.1,-3.6,30.44,West,271,7.0,8.0,80,0.00,,,0.00,Wunderground v.1.15,2013-02-01 15:24:00,
2013-02-01 09:26:00,1.2,-3.8,30.44,WSW,246,7.0,8.0,79,0.00,,,0.00,Wunderground v.1.15,2013-02-01 15:26:00,
2013-02-01 09:28:00,1.0,-4.3,30.44,West,269,8.0,8.0,78,0.00,,,0.00,Wunderground v.1.15,2013-02-01 15:28:00,
2013-02-01 09:32:00,1.1,-4.2,30.44,WNW,289,8.0,8.0,78,0.00,,,0.00,Wunderground v.1.15,2013-02-01 15:32:00,
2013-02-01 09:38:00,1.3,-3.7,30.44,SW,236,8.0,11.0,79,0.00,,,0.00,Wunderground v.1.15,2013-02-01 15:38:00,
2013-02-01 09:40:00,1.3,-4.0,30.44,West,259,8.0,8.0,78,0.00,,,0.00,Wunderground v.1.15,2013-02-01 15:40:00,
2013-02-01 09:42:00,1.3,-4.0,30.44,WSW,257,8.0,10.0,78,0.00,,,0.00,Wunderground v.1.15,2013-02-01 15:42:00,
2013-02-01 09:46:00,1.3,-3.7,30.44,SW,228,7.0,10.0,79,0.00,,,0.00,Wunderground v.1.15,2013-02-01 15:46:00,
2013-02-01 09:50:00,1.7,-3.0,30.44,SW,219,8.0,8.0,80,0.00,,,0.00,Wunderground v.1.15,2013-02-01 15:50:00,
2013-02-01 09:52:00,1.8,-3.2,30.45,West,263,7.0,8.0,79,0.00,,,0.00,Wunderground v.1.15,2013-02-01 15:52:00,
2013-02-01 09:56:00,1.9,-3.4,30.44,SW,226,7.0,13.0,78,0.00,,,0.00,Wunderground v.1.15,2013-02-01 15:56:00,
2013-02-01 09:58:00,1.9,-3.4,30.44,West,262,7.0,13.0,78,0.00,,,0.00,Wunderground v.1.15,2013-02-01 15:58:00,
2013-02-01 10:00:00,1.9,-3.4,30.44,West,276,8.0,11.0,78,0.00,,,0.00,Wunderground v.1.15,2013-02-01 16:00:00,
2013-02-01 10:04:00,1.9,-3.4,30.44,WSW,255,8.0,11.0,78,0.00,,,0.00,Wunderground v.1.15,2013-02-01 16:04:00,
2013-02-01 10:08:00,2.1,-3.2,30.45,WSW,242,8.0,11.0,78,0.00,,,0.00,Wunderground v.1.15,2013-02-01 16:08:00,
2013-02-01 10:10:00,2.3,-3.0,30.45,West,277,8.0,10.0,78,0.00,,,0.00,Wunderground v.1.15,2013-02-01 16:10:00,
2013-02-01 10:12:00,2.4,-2.9,30.45,WSW,248,8.0,10.0,78,0.00,,,0.00,Wunderground v.1.15,2013-02-01 16:12:00,
2013-02-01 10:18:00,2.3,-3.3,30.45,WSW,257,8.0,12.0,77,0.00,,,0.00,Wunderground v.1.15,2013-02-01 16:18:00,
2013-02-01 10:20:00,2.4,-3.2,30.45,SW,232,9.0,9.0,77,0.00,,,0.00,Wunderground v.1.15,2013-02-01 16:20:00,
2013-02-01 10:24:00,2.4,-3.2,30.45,WSW,238,9.0,10.0,77,0.00,,,0.00,Wunderground v.1.15,2013-02-01 16:24:00,
2013-02-01 10:30:00,2.4,-3.2,30.44,WSW,242,8.0,8.0,77,0.00,,,0.00,Wunderground v.1.15,2013-02-01 16:30:00,
2013-02-01 10:32:00,2.5,-2.8,30.44,SW,222,9.0,15.0,78,0.00,,,0.00,Wunderground v.1.15,2013-02-01 16:32:00,
2013-02-01 10:38:00,2.6,-3.0,30.45,WSW,255,9.0,15.0,77,0.00,,,0.00,Wunderground v.1.15,2013-02-01 16:38:00,
2013-02-01 10:40:00,2.7,-2.6,30.45,WSW,257,9.0,9.0,78,0.00,,,0.00,Wunderground v.1.15,2013-02-01 16:40:00,
2013-02-01 10:44:00,2.7,-2.9,30.45,SSW,213,9.0,10.0,77,0.00,,,0.00,Wunderground v.1.15,2013-02-01 16:44:00,
2013-02-01 10:48:00,3.1,-2.5,30.45,West,281,9.0,10.0,77,0.00,,,0.00,Wunderground v.1.15,2013-02-01 16:48:00,
2013-02-01 10:50:00,3.2,-2.4,30.45,West,267,9.0,9.0,77,0.00,,,0.00,Wunderground v.1.15,2013-02-01 16:50:00,
2013-02-01 10:52:00,3.2,-2.4,30.45,SW,214,8.0,9.0,77,0.00,,,0.00,Wunderground v.1.15,2013-02-01 16:52:00,
2013-02-01 10:54:00,3.3,-2.3,30.45,WNW,288,8.0,9.0,77,0.00,,,0.00,Wunderground v.1.15,2013-02-01 16:54:00,
2013-02-01 10:56:00,3.3,-2.3,30.45,WSW,242,7.0,12.0,77,0.00,,,0.00,Wunderground v.1.15,2013-02-01 16:56:00,
2013-02-01 11:00:00,3.5,-1.8,30.45,West,274,8.0,8.0,78,0.00,,,0.00,Wunderground v.1.15,2013-02-01 17:00:00,
2013-02-01 11:02:00,3.7,-1.6,30.44,WSW,240,8.0,12.0,78,0.00,,,0.00,Wunderground v.1.15,2013-02-01 17:02:00,
2013-02-01 11:06:00,3.5,-2.4,30.44,SW,236,8.0,15.0,76,0.00,,,0.00,Wunderground v.1.15,2013-02-01 17:06:00,
2013-02-01 11:08:00,3.5,-2.1,30.44,SW,235,9.0,15.0,77,0.00,,,0.00,Wunderground v.1.15,2013-02-01 17:08:00,
2013-02-01 11:10:00,3.6,-1.7,30.44,WSW,250,9.0,12.0,78,0.00,,,0.00,Wunderground v.1.15,2013-02-01 17:10:00,
2013-02-01 11:12:00,3.6,-2.0,30.44,WSW,257,10.0,12.0,77,0.00,,,0.00,Wunderground v.1.15,2013-02-01 17:12:00,
2013-02-01 11:16:00,3.5,-2.4,30.44,SW,214,10.0,12.0,76,0.00,,,0.00,Wunderground v.1.15,2013-02-01 17:16:00,
2013-02-01 11:18:00,3.6,-1.7,30.44,SW,236,9.0,14.0,78,0.00,,,0.00,Wunderground v.1.15,2013-02-01 17:18:00,
2013-02-01 11:20:00,3.8,-1.5,30.44,SW,214,9.0,11.0,78,0.00,,,0.00,Wunderground v.1.15,2013-02-01 17:20:00,
2013-02-01 11:24:00,3.9,-1.4,30.44,WSW,257,9.0,11.0,78,0.00,,,0.00,Wunderground v.1.15,2013-02-01 17:24:00,
2013-02-01 11:28:00,4.0,-1.6,30.44,WSW,250,9.0,11.0,77,0.00,,,0.00,Wunderground v.1.15,2013-02-01 17:28:00,
2013-02-01 11:30:00,4.1,-1.2,30.44,SW,228,9.0,9.0,78,0.00,,,0.00,Wunderground v.1.15,2013-02-01 17:30:00,
2013-02-01 11:36:00,4.1,-1.5,30.44,WSW,253,9.0,12.0,77,0.00,,,0.00,Wunderground v.1.15,2013-02-01 17:36:00,
2013-02-01 11:38:00,4.3,-0.8,30.44,WSW,246,9.0,12.0,79,0.00,,,0.00,Wunderground v.1.15,2013-02-01 17:38:00,
2013-02-01 11:42:00,4.4,-1.2,30.44,WSW,246,9.0,10.0,77,0.00,,,0.00,Wunderground v.1.15,2013-02-01 17:42:00,
2013-02-01 11:44:00,4.7,-0.7,30.44,SSW,213,9.0,13.0,78,0.00,,,0.00,Wunderground v.1.15,2013-02-01 17:44:00,
2013-02-01 11:48:00,4.8,-0.6,30.44,SW,219,9.0,13.0,78,0.00,,,0.00,Wunderground v.1.15,2013-02-01 17:48:00,
2013-02-01 11:50:00,4.8,-0.8,30.44,WSW,245,9.0,14.0,77,0.00,,,0.00,Wunderground v.1.15,2013-02-01 17:50:00,
2013-02-01 11:56:00,4.9,-0.2,30.44,WSW,250,10.0,14.0,79,0.00,,,0.00,Wunderground v.1.15,2013-02-01 17:56:00,
2013-02-01 11:58:00,4.9,-0.2,30.44,West,259,11.0,14.0,79,0.00,,,0.00,Wunderground v.1.15,2013-02-01 17:58:00,
2013-02-01 12:02:00,5.1,0.3,30.44,WSW,246,10.0,11.0,80,0.00,,,0.00,Wunderground v.1.15,2013-02-01 18:02:00,
2013-02-01 12:06:00,5.4,0.6,30.43,SW,222,10.0,11.0,80,0.00,,,0.00,Wunderground v.1.15,2013-02-01 18:06:00,
2013-02-01 12:08:00,5.7,0.9,30.43,WSW,242,10.0,11.0,80,0.00,,,0.00,Wunderground v.1.15,2013-02-01 18:08:00,
2013-02-01 12:14:00,5.9,0.8,30.43,WSW,250,11.0,11.0,79,0.00,,,0.00,Wunderground v.1.15,2013-02-01 18:14:00,
2013-02-01 12:18:00,6.0,0.9,30.43,SSW,208,11.0,16.0,79,0.00,,,0.00,Wunderground v.1.15,2013-02-01 18:18:00,
2013-02-01 12:20:00,6.3,1.7,30.43,West,260,11.0,11.0,81,0.00,,,0.00,Wunderground v.1.15,2013-02-01 18:20:00,
2013-02-01 12:22:00,6.5,1.6,30.43,SW,231,10.0,11.0,80,0.00,,,0.00,Wunderground v.1.15,2013-02-01 18:22:00,
2013-02-01 12:24:00,6.3,0.6,30.43,SW,228,10.0,11.0,77,0.00,,,0.00,Wunderground v.1.15,2013-02-01 18:24:00,
2013-02-01 12:28:00,6.3,0.6,30.42,SW,220,10.0,13.0,77,0.00,,,0.00,Wunderground v.1.15,2013-02-01 18:28:00,
2013-02-01 12:32:00,6.2,0.3,30.42,SW,222,10.0,11.0,76,0.00,,,0.00,Wunderground v.1.15,2013-02-01 18:32:00,
2013-02-01 12:34:00,6.2,0.5,30.42,SW,236,10.0,14.0,77,0.00,,,0.00,Wunderground v.1.15,2013-02-01 18:34:00,
2013-02-01 12:40:00,6.5,1.1,30.42,SW,222,10.0,13.0,78,0.00,,,0.00,Wunderground v.1.15,2013-02-01 18:40:00,
2013-02-01 12:44:00,6.6,1.2,30.41,SW,228,10.0,13.0,78,0.00,,,0.00,Wunderground v.1.15,2013-02-01 18:44:00,
2013-02-01 12:46:00,6.8,1.4,30.42,WSW,240,10.0,15.0,78,0.00,,,0.00,Wunderground v.1.15,2013-02-01 18:46:00,
2013-02-01 12:48:00,6.8,1.1,30.41,SW,235,10.0,16.0,77,0.00,,,0.00,Wunderground v.1.15,2013-02-01 18:48:00,
2013-02-01 12:50:00,7.1,2.0,30.41,West,264,10.0,10.0,79,0.00,,,0.00,Wunderground v.1.15,2013-02-01 18:50:00,
2013-02-01 12:52:00,7.3,2.4,30.41,SW,229,11.0,12.0,80,0.00,,,0.00,Wunderground v.1.15,2013-02-01 18:52:00,
2013-02-01 12:56:00,7.3,1.9,30.41,WSW,240,11.0,13.0,78,0.00,,,0.00,Wunderground v.1.15,2013-02-01 18:56:00,
2013-02-01 12:58:00,7.3,1.6,30.41,SW,215,11.0,13.0,77,0.00,,,0.00,Wunderground v.1.15,2013-02-01 18:58:00,
2013-02-01 13:00:00,7.3,1.6,30.41,WSW,245,12.0,12.0,77,0.00,,,0.00,Wunderground v.1.15,2013-02-01 19:00:00,
2013-02-01 13:02:00,7.4,1.7,30.41,WSW,248,11.0,12.0,77,0.00,,,0.00,Wunderground v.1.15,2013-02-01 19:02:00,
2013-02-01 13:04:00,7.3,1.3,30.41,SW,225,11.0,12.0,76,0.00,,,0.00,Wunderground v.1.15,2013-02-01 19:04:00,
2013-02-01 13:08:00,7.2,1.2,30.40,SW,222,11.0,15.0,76,0.00,,,0.00,Wunderground v.1.15,2013-02-01 19:08:00,
2013-02-01 13:10:00,7.2,1.2,30.40,West,275,11.0,11.0,76,0.00,,,0.00,Wunderground v.1.15,2013-02-01 19:10:00,
2013-02-01 13:16:00,7.4,1.4,30.40,SW,232,10.0,11.0,76,0.00,,,0.00,Wunderground v.1.15,2013-02-01 19:16:00,
2013-02-01 13:18:00,7.7,2.0,30.40,WSW,243,10.0,11.0,77,0.00,,,0.00,Wunderground v.1.15,2013-02-01 19:18:00,
2013-02-01 13:20:00,7.7,1.7,30.40,WNW,291,9.0,11.0,76,0.00,,,0.00,Wunderground v.1.15,2013-02-01 19:20:00,
2013-02-01 13:24:00,8.0,2.3,30.40,SW,221,10.0,14.0,77,0.00,,,0.00,Wunderground v.1.15,2013-02-01 19:24:00,
2013-02-01 13:26:00,7.9,1.6,30.40,West,259,11.0,14.0,75,0.00,,,0.00,Wunderground v.1.15,2013-02-01 19:26:00,
2013-02-01 13:28:00,8.0,1.7,30.40,SW,228,10.0,14.0,75,0.00,,,0.00,Wunderground v.1.15,2013-02-01 19:28:00,
2013-02-01 13:30:00,8.1,2.4,30.40,WSW,245,11.0,11.0,77,0.00,,,0.00,Wunderground v.1.15,2013-02-01 19:30:00,
2013-02-01 13:32:00,8.3,2.6,30.39,SSW,203,10.0,11.0,77,0.00,,,0.00,Wunderground v.1.15,2013-02-01 19:32:00,
2013-02-01 13:36:00,8.5,2.5,30.39,WNW,289,9.0,11.0,76,0.00,,,0.00,Wunderground v.1.15,2013-02-01 19:36:00,
2013-02-01 13:38:00,8.5,2.5,30.39,SSW,211,9.0,11.0,76,0.00,,,0.00,Wunderground v.1.15,2013-02-01 19:38:00,
2013-02-01 13:42:00,8.6,2.6,30.39,SW,229,9.0,15.0,76,0.00,,,0.00,Wunderground v.1.15,2013-02-01 19:42:00,
2013-02-01 13:44:00,8.5,2.5,30.39,West,278,9.0,15.0,76,0.00,,,0.00,Wunderground v.1.15,2013-02-01 19:44:00,
2013-02-01 13:46:00,8.6,2.9,30.39,SSW,203,9.0,15.0,77,0.00,,,0.00,Wunderground v.1.15,2013-02-01 19:46:00,
2013-02-01 13:48:00,8.5,2.5,30.39,SW,215,10.0,15.0,76,0.00,,,0.00,Wunderground v.1.15,2013-02-01 19:48:00,
2013-02-01 13:52:00,8.9,3.2,30.38,South,187,10.0,12.0,77,0.00,,,0.00,Wunderground v.1.15,2013-02-01 19:52:00,
2013-02-01 13:54:00,8.9,2.9,30.38,WSW,253,10.0,12.0,76,0.00,,,0.00,Wunderground v.1.15,2013-02-01 19:54:00,
2013-02-01 13:58:00,8.9,2.9,30.38,WSW,242,10.0,12.0,76,0.00,,,0.00,Wunderground v.1.15,2013-02-01 19:58:00,
2013-02-01 14:00:00,9.0,3.0,30.38,WSW,248,10.0,10.0,76,0.00,,,0.00,Wunderground v.1.15,2013-02-01 20:00:00,
2013-02-01 14:02:00,9.1,3.4,30.38,SSW,205,9.0,12.0,77,0.00,,,0.00,Wunderground v.1.15,2013-02-01 20:02:00,
2013-02-01 14:04:00,9.1,2.8,30.38,WSW,246,9.0,12.0,75,0.00,,,0.00,Wunderground v.1.15,2013-02-01 20:04:00,
2013-02-01 14:06:00,9.1,2.8,30.37,WSW,248,9.0,12.0,75,0.00,,,0.00,Wunderground v.1.15,2013-02-01 20:06:00,
2013-02-01 14:08:00,9.2,3.2,30.37,WSW,257,9.0,12.0,76,0.00,,,0.00,Wunderground v.1.15,2013-02-01 20:08:00,
2013-02-01 14:12:00,9.6,3.8,30.37,SW,226,9.0,9.0,77,0.00,,,0.00,Wunderground v.1.15,2013-02-01 20:12:00,
2013-02-01 14:14:00,9.6,3.3,30.37,SW,231,9.0,11.0,75,0.00,,,0.00,Wunderground v.1.15,2013-02-01 20:14:00,
2013-02-01 14:16:00,9.6,3.0,30.37,SW,214,9.0,11.0,74,0.00,,,0.00,Wunderground v.1.15,2013-02-01 20:16:00,
2013-02-01 14:20:00,9.6,3.0,30.37,South,185,9.0,11.0,74,0.00,,,0.00,Wunderground v.1.15,2013-02-01 20:20:00,
2013-02-01 14:22:00,9.6,3.0,30.37,SW,226,9.0,11.0,74,0.00,,,0.00,Wunderground v.1.15,2013-02-01 20:22:00,
2013-02-01 14:26:00,9.6,3.0,30.36,SSW,210,9.0,11.0,74,0.00,,,0.00,Wunderground v.1.15,2013-02-01 20:26:00,
2013-02-01 14:30:00,9.8,3.2,30.36,SW,228,9.0,11.0,74,0.00,,,0.00,Wunderground v.1.15,2013-02-01 20:30:00,
2013-02-01 14:32:00,9.8,3.2,30.36,SW,233,9.0,11.0,74,0.00,,,0.00,Wunderground v.1.15,2013-02-01 20:32:00,
2013-02-01 14:38:00,10.2,3.8,30.36,SW,218,8.0,11.0,75,0.00,,,0.00,Wunderground v.1.15,2013-02-01 20:38:00,
2013-02-01 14:40:00,10.4,4.0,30.36,SW,214,8.0,10.0,75,0.00,,,0.00,Wunderground v.1.15,2013-02-01 20:40:00,
2013-02-01 14:42:00,10.4,4.0,30.36,SW,228,8.0,12.0,75,0.00,,,0.00,Wunderground v.1.15,2013-02-01 20:42:00,
2013-02-01 14:48:00,10.3,3.9,30.36,SW,228,10.0,13.0,75,0.00,,,0.00,Wunderground v.1.15,2013-02-01 20:48:00,
2013-02-01 14:50:00,10.4,4.3,30.36,West,263,10.0,10.0,76,0.00,,,0.00,Wunderground v.1.15,2013-02-01 20:50:00,
2013-02-01 14:52:00,10.6,4.5,30.36,WSW,245,9.0,10.0,76,0.00,,,0.00,Wunderground v.1.15,2013-02-01 20:52:00,
2013-02-01 14:54:00,10.5,4.1,30.36,SW,222,10.0,11.0,75,0.00,,,0.00,Wunderground v.1.15,2013-02-01 20:54:00,
2013-02-01 15:00:00,10.9,4.2,30.36,SW,229,8.0,12.0,74,0.00,,,0.00,Wunderground v.1.15,2013-02-01 21:00:00,
2013-02-01 15:02:00,10.9,4.2,30.36,WSW,248,9.0,12.0,74,0.00,,,0.00,Wunderground v.1.15,2013-02-01 21:02:00,
2013-02-01 15:06:00,11.0,4.6,30.37,WSW,248,9.0,12.0,75,0.00,,,0.00,Wunderground v.1.15,2013-02-01 21:06:00,
2013-02-01 15:10:00,10.9,4.5,30.36,SSW,198,10.0,13.0,75,0.00,,,0.00,Wunderground v.1.15,2013-02-01 21:10:00,
2013-02-01 15:14:00,10.9,4.8,30.36,SW,219,10.0,13.0,76,0.00,,,0.00,Wunderground v.1.15,2013-02-01 21:14:00,
2013-02-01 15:16:00,10.9,4.5,30.36,SW,222,10.0,13.0,75,0.00,,,0.00,Wunderground v.1.15,2013-02-01 21:16:00,
2013-02-01 15:22:00,10.9,4.5,30.36,SSW,208,10.0,14.0,75,0.00,,,0.00,Wunderground v.1.15,2013-02-01 21:22:00,
2013-02-01 15:24:00,10.9,4.2,30.36,SSW,208,10.0,14.0,74,0.00,,,0.00,Wunderground v.1.15,2013-02-01 21:24:00,
2013-02-01 15:26:00,10.9,4.5,30.36,SW,228,10.0,14.0,75,0.00,,,0.00,Wunderground v.1.15,2013-02-01 21:26:00,
2013-02-01 15:30:00,10.9,4.8,30.36,SSW,198,11.0,11.0,76,0.00,,,0.00,Wunderground v.1.15,2013-02-01 21:30:00,
2013-02-01 15:32:00,10.9,4.8,30.36,WSW,245,12.0,13.0,76,0.00,,,0.00,Wunderground v.1.15,2013-02-01 21:32:00,
2013-02-01 15:38:00,10.8,4.4,30.36,SSW,210,13.0,14.0,75,0.00,,,0.00,Wunderground v.1.15,2013-02-01 21:38:00,
2013-02-01 15:40:00,10.8,4.4,30.37,SSW,211,12.0,14.0,75,0.00,,,0.00,Wunderground v.1.15,2013-02-01 21:40:00,
2013-02-01 15:42:00,11.0,4.9,30.36,SW,226,13.0,14.0,76,0.00,,,0.00,Wunderground v.1.15,2013-02-01 21:42:00,
2013-02-01 15:48:00,11.2,4.5,30.36,South,186,11.0,14.0,74,0.00,,,0.00,Wunderground v.1.15,2013-02-01 21:48:00,
2013-02-01 15:50:00,11.1,4.4,30.36,SW,229,12.0,12.0,74,0.00,,,0.00,Wunderground v.1.15,2013-02-01 21:50:00,
2013-02-01 15:52:00,11.2,4.5,30.37,SW,229,11.0,14.0,74,0.00,,,0.00,Wunderground v.1.15,2013-02-01 21:52:00,
2013-02-01 15:54:00,11.2,4.5,30.36,West,262,11.0,14.0,74,0.00,,,0.00,Wunderground v.1.15,2013-02-01 21:54:00,
2013-02-01 15:58:00,11.5,4.8,30.37,SW,226,11.0,14.0,74,0.00,,,0.00,Wunderground v.1.15,2013-02-01 21:58:00,
2013-02-01 16:00:00,11.5,5.1,30.36,SW,215,11.0,11.0,75,0.00,,,0.00,Wunderground v.1.15,2013-02-01 22:00:00,
2013-02-01 16:06:00,11.5,4.8,30.36,SW,226,11.0,18.0,74,0.00,,,0.00,Wunderground v.1.15,2013-02-01 22:06:00,
2013-02-01 16:08:00,11.5,4.8,30.36,SSW,204,12.0,18.0,74,0.00,,,0.00,Wunderground v.1.15,2013-02-01 22:08:00,
2013-02-01 16:12:00,11.6,5.2,30.36,SW,226,12.0,14.0,75,0.00,,,0.00,Wunderground v.1.15,2013-02-01 22:12:00,
2013-02-01 16:16:00,11.6,4.9,30.36,WSW,251,11.0,14.0,74,0.00,,,0.00,Wunderground v.1.15,2013-02-01 22:16:00,
2013-02-01 16:18:00,11.6,5.2,30.36,SW,229,11.0,14.0,75,0.00,,,0.00,Wunderground v.1.15,2013-02-01 22:18:00,
2013-02-01 16:24:00,11.4,5.0,30.35,SSW,197,11.0,12.0,75,0.00,,,0.00,Wunderground v.1.15,2013-02-01 22:24:00,
2013-02-01 16:28:00,11.4,5.3,30.35,West,259,11.0,12.0,76,0.00,,,0.00,Wunderground v.1.15,2013-02-01 22:28:00,
2013-02-01 16:30:00,11.4,5.3,30.35,SSW,205,11.0,11.0,76,0.00,,,0.00,Wunderground v.1.15,2013-02-01 22:30:00,
2013-02-01 16:34:00,11.4,5.3,30.35,SW,229,11.0,11.0,76,0.00,,,0.00,Wunderground v.1.15,2013-02-01 22:34:00,
2013-02-01 16:36:00,11.3,4.9,30.35,SW,217,10.0,13.0,75,0.00,,,0.00,Wunderground v.1.15,2013-02-01 22:36:00,
2013-02-01 16:42:00,10.8,4.7,30.35,West,259,10.0,11.0,76,0.00,,,0.00,Wunderground v.1.15,2013-02-01 22:42:00,
2013-02-01 16:44:00,10.7,4.6,30.35,West,263,10.0,11.0,76,0.00,,,0.00,Wunderground v.1.15,2013-02-01 22:44:00,
2013-02-01 16:48:00,10.5,4.7,30.35,SW,214,9.0,11.0,77,0.00,,,0.00,Wunderground v.1.15,2013-02-01 22:48:00,
2013-02-01 16:50:00,10.5,4.7,30.35,WSW,253,9.0,9.0,77,0.00,,,0.00,Wunderground v.1.15,2013-02-01 22:50:00,
2013-02-01 16:54:00,10.4,4.3,30.34,WSW,240,8.0,9.0,76,0.00,,,0.00,Wunderground v.1.15,2013-02-01 22:54:00,
2013-02-01 16:56:00,10.4,4.3,30.34,SW,223,9.0,12.0,76,0.00,,,0.00,Wunderground v.1.15,2013-02-01 22:56:00,
2013-02-01 17:00:00,10.3,4.5,30.34,SW,214,8.0,9.0,77,0.00,,,0.00,Wunderground v.1.15,2013-02-01 23:00:00,
2013-02-01 17:02:00,10.3,4.8,30.34,SSW,197,8.0,9.0,78,0.00,,,0.00,Wunderground v.1.15,2013-02-01 23:02:00,
2013-02-01 17:06:00,10.3,4.8,30.34,WSW,248,7.0,9.0,78,0.00,,,0.00,Wunderground v.1.15,2013-02-01 23:06:00,
2013-02-01 17:08:00,10.3,4.8,30.34,SW,232,8.0,11.0,78,0.00,,,0.00,Wunderground v.1.15,2013-02-01 23:08:00,
2013-02-01 17:10:00,10.3,4.5,30.34,SW,225,8.0,10.0,77,0.00,,,0.00,Wunderground v.1.15,2013-02-01 23:10:00,
2013-02-01 17:16:00,10.6,5.1,30.33,WSW,239,9.0,11.0,78,0.00,,,0.00,Wunderground v.1.15,2013-02-01 23:16:00,
2013-02-01 17:20:00,10.7,4.9,30.33,WSW,246,9.0,9.0,77,0.00,,,0.00,Wunderground v.1.15,2013-02-01 23:20:00,
2013-02-01 17:26:00,10.9,5.4,30.33,SSW,210,9.0,10.0,78,0.00,,,0.00,Wunderground v.1.15,2013-02-01 23:26:00,
2013-02-01 17:28:00,11.0,5.5,30.33,SSW,195,8.0,10.0,78,0.00,,,0.00,Wunderground v.1.15,2013-02-01 23:28:00,
2013-02-01 17:32:00,11.0,5.2,30.33,WSW,240,8.0,8.0,77,0.00,,,0.00,Wunderground v.1.15,2013-02-01 23:32:00,
2013-02-01 17:34:00,11.0,5.2,30.33,SW,226,8.0,8.0,77,0.00,,,0.00,Wunderground v.1.15,2013-02-01 23:34:00,
2013-02-01 17:38:00,11.0,5.5,30.33,SSW,206,8.0,12.0,78,0.00,,,0.00,Wunderground v.1.15,2013-02-01 23:38:00,
2013-02-01 17:42:00,11.1,5.6,30.33,WSW,245,8.0,11.0,78,0.00,,,0.00,Wunderground v.1.15,2013-02-01 23:42:00,
2013-02-01 17:48:00,11.3,5.5,30.32,WSW,248,10.0,16.0,77,0.00,,,0.00,Wunderground v.1.15,2013-02-01 23:48:00,
2013-02-01 17:50:00,11.3,5.5,30.32,SSW,211,10.0,12.0,77,0.00,,,0.00,Wunderground v.1.15,2013-02-01 23:50:00,
2013-02-01 17:56:00,11.4,5.0,30.32,SW,224,11.0,16.0,75,0.00,,,0.00,Wunderground v.1.15,2013-02-01 23:56:00,
2013-02-01 17:58:00,11.4,5.0,30.32,WSW,255,11.0,16.0,75,0.00,,,0.00,Wunderground v.1.15,2013-02-01 23:58:00,
2013-02-01 18:00:00,11.5,5.1,30.32,WSW,245,11.0,14.0,75,0.00,,,0.00,Wunderground v.1.15,2013-02-02 00:00:00,
2013-02-01 18:06:00,11.6,5.5,30.33,SW,231,11.0,14.0,76,0.00,,,0.00,Wunderground v.1.15,2013-02-02 00:06:00,
2013-02-01 18:08:00,11.7,5.6,30.33,SW,226,10.0,14.0,76,0.00,,,0.00,Wunderground v.1.15,2013-02-02 00:08:00,
2013-02-01 18:12:00,11.7,5.6,30.32,SW,232,8.0,11.0,76,0.00,,,0.00,Wunderground v.1.15,2013-02-02 00:12:00,
2013-02-01 18:14:00,11.7,5.6,30.32,SW,222,8.0,11.0,76,0.00,,,0.00,Wunderground v.1.15,2013-02-02 00:14:00,
2013-02-01 18:18:00,11.7,5.9,30.32,SW,225,7.0,14.0,77,0.00,,,0.00,Wunderground v.1.15,2013-02-02 00:18:00,
2013-02-01 18:20:00,11.7,5.6,30.32,SW,219,8.0,11.0,76,0.00,,,0.00,Wunderground v.1.15,2013-02-02 00:20:00,
2013-02-01 18:24:00,11.8,6.3,30.32,SW,218,9.0,11.0,78,0.00,,,0.00,Wunderground v.1.15,2013-02-02 00:24:00,
2013-02-01 18:30:00,11.9,6.4,30.31,WSW,253,10.0,10.0,78,0.00,,,0.00,Wunderground v.1.15,2013-02-02 00:30:00,
2013-02-01 18:36:00,12.1,6.6,30.31,SW,235,10.0,14.0,78,0.00,,,0.00,Wunderground v.1.15,2013-02-02 00:36:00,
2013-02-01 18:38:00,12.1,6.8,30.31,SW,224,10.0,14.0,79,0.00,,,0.00,Wunderground v.1.15,2013-02-02 00:38:00,
2013-02-01 18:40:00,12.1,6.8,30.31,SW,218,9.0,9.0,79,0.00,,,0.00,Wunderground v.1.15,2013-02-02 00:40:00,
2013-02-01 18:44:00,12.2,6.9,30.31,SW,215,9.0,10.0,79,0.00,,,0.00,Wunderground v.1.15,2013-02-02 00:44:00,
2013-02-01 18:46:00,12.2,6.9,30.30,SSW,205,9.0,10.0,79,0.00,,,0.00,Wunderground v.1.15,2013-02-02 00:46:00,
2013-02-01 18:48:00,12.3,7.3,30.30,SSW,210,8.0,10.0,80,0.00,,,0.00,Wunderground v.1.15,2013-02-02 00:48:00,
2013-02-01 18:50:00,12.4,7.4,30.30,SW,235,8.0,8.0,80,0.00,,,0.00,Wunderground v.1.15,2013-02-02 00:50:00,
2013-02-01 18:52:00,12.5,7.5,30.30,SSW,194,8.0,8.0,80,0.00,,,0.00,Wunderground v.1.15,2013-02-02 00:52:00,
2013-02-01 18:56:00,12.6,7.6,30.30,South,190,8.0,10.0,80,0.00,,,0.00,Wunderground v.1.15,2013-02-02 00:56:00,
2013-02-01 18:58:00,12.8,7.8,30.30,SW,214,8.0,11.0,80,0.00,,,0.00,Wunderground v.1.15,2013-02-02 00:58:00,
2013-02-01 19:04:00,12.9,7.6,30.30,SSW,207,9.0,9.0,79,0.00,,,0.00,Wunderground v.1.15,2013-02-02 01:04:00,
2013-02-01 19:06:00,12.9,7.6,30.30,SW,231,9.0,11.0,79,0.00,,,0.00,Wunderground v.1.15,2013-02-02 01:06:00,
2013-02-01 19:08:00,13.0,8.0,30.30,West,260,9.0,11.0,80,0.00,,,0.00,Wunderground v.1.15,2013-02-02 01:08:00,
2013-02-01 19:12:00,13.2,8.2,30.29,SSW,208,10.0,10.0,80,0.00,,,0.00,Wunderground v.1.15,2013-02-02 01:12:00,
2013-02-01 19:16:00,13.3,8.3,30.29,SSW,205,10.0,11.0,80,0.00,,,0.00,Wunderground v.1.15,2013-02-02 01:16:00,
2013-02-01 19:18:00,13.4,8.1,30.29,SSW,194,10.0,11.0,79,0.00,,,0.00,Wunderground v.1.15,2013-02-02 01:18:00,
2013-02-01 19:20:00,13.4,8.1,30.29,West,266,10.0,13.0,79,0.00,,,0.00,Wunderground v.1.15,2013-02-02 01:20:00,
2013-02-01 19:24:00,13.6,8.3,30.29,SW,226,11.0,14.0,79,0.00,,,0.00,Wunderground v.1.15,2013-02-02 01:24:00,
2013-02-01 19:30:00,13.8,8.5,30.29,SSW,198,11.0,11.0,79,0.00,,,0.00,Wunderground v.1.15,2013-02-02 01:30:00,
2013-02-01 19:32:00,13.9,8.6,30.29,SSW,193,10.0,11.0,79,0.00,,,0.00,Wunderground v.1.15,2013-02-02 01:32:00,
2013-02-01 19:36:00,13.9,8.6,30.28,SSE,156,9.0,11.0,79,0.00,,,0.00,Wunderground v.1.15,2013-02-02 01:36:00,
2013-02-01 19:40:00,13.9,8.6,30.28,WSW,243,9.0,9.0,79,0.00,,,0.00,Wunderground v.1.15,2013-02-02 01:40:00,
2013-02-01 19:42:00,14.0,8.7,30.28,SE,136,9.0,11.0,79,0.00,,,0.00,Wunderground v.1.15,2013-02-02 01:42:00,
2013-02-01 19:48:00,14.1,8.8,30.28,South,184,8.0,12.0,79,0.00,,,0.00,Wunderground v.1.15,2013-02-02 01:48:00,
2013-02-01 19:50:00,14.1,8.8,30.28,SW,214,9.0,9.0,79,0.00,,,0.00,Wunderground v.1.15,2013-02-02 01:50:00,
2013-02-01 19:52:00,14.2,8.9,30.28,SW,226,9.0,11.0,79,0.00,,,0.00,Wunderground v.1.15,2013-02-02 01:52:00,
2013-02-01 19:54:00,14.2,8.9,30.28,South,179,9.0,11.0,79,0.00,,,0.00,Wunderground v.1.15,2013-02-02 01:54:00,
2013-02-01 19:56:00,14.3,9.0,30.27,SSW,195,9.0,11.0,79,0.00,,,0.00,Wunderground v.1.15,2013-02-02 01:56:00,
2013-02-01 20:02:00,14.3,9.0,30.27,SW,216,9.0,10.0,79,0.00,,,0.00,Wunderground v.1.15,2013-02-02 02:02:00,
2013-02-01 20:06:00,14.5,9.2,30.28,SW,215,8.0,10.0,79,0.00,,,0.00,Wunderground v.1.15,2013-02-02 02:06:00,
2013-02-01 20:08:00,14.5,9.2,30.27,SSW,213,8.0,10.0,79,0.00,,,0.00,Wunderground v.1.15,2013-02-02 02:08:00,
2013-02-01 20:12:00,14.5,9.2,30.27,SSW,194,7.0,8.0,79,0.00,,,0.00,Wunderground v.1.15,2013-02-02 02:12:00,
2013-02-01 20:18:00,14.7,9.6,30.27,SSW,203,6.0,9.0,80,0.00,,,0.00,Wunderground v.1.15,2013-02-02 02:18:00,
2013-02-01 20:20:00,14.7,9.6,30.27,SSW,202,6.0,8.0,80,0.00,,,0.00,Wunderground v.1.15,2013-02-02 02:20:00,
2013-02-01 20:22:00,14.7,9.6,30.27,SSW,194,6.0,8.0,80,0.00,,,0.00,Wunderground v.1.15,2013-02-02 02:22:00,
2013-02-01 20:28:00,14.8,10.0,30.27,SSW,202,7.0,8.0,81,0.00,,,0.00,Wunderground v.1.15,2013-02-02 02:28:00,
2013-02-01 20:30:00,14.9,10.1,30.26,SSW,205,7.0,8.0,81,0.00,,,0.00,Wunderground v.1.15,2013-02-02 02:30:00,
2013-02-01 20:34:00,15.0,10.2,30.27,SSW,195,6.0,8.0,81,0.00,,,0.00,Wunderground v.1.15,2013-02-02 02:34:00,
2013-02-01 20:36:00,15.1,10.3,30.26,SSW,203,6.0,8.0,81,0.00,,,0.00,Wunderground v.1.15,2013-02-02 02:36:00,
2013-02-01 20:38:00,15.1,10.3,30.26,WSW,245,6.0,9.0,81,0.00,,,0.00,Wunderground v.1.15,2013-02-02 02:38:00,
2013-02-01 20:44:00,15.2,10.7,30.26,WSW,243,6.0,7.0,82,0.00,,,0.00,Wunderground v.1.15,2013-02-02 02:44:00,
2013-02-01 20:46:00,15.3,10.8,30.26,SSW,201,6.0,7.0,82,0.00,,,0.00,Wunderground v.1.15,2013-02-02 02:46:00,
2013-02-01 20:50:00,15.3,11.1,30.26,SSW,203,6.0,8.0,83,0.00,,,0.00,Wunderground v.1.15,2013-02-02 02:50:00,
2013-02-01 20:56:00,15.4,11.2,30.26,WSW,248,8.0,12.0,83,0.00,,,0.00,Wunderground v.1.15,2013-02-02 02:56:00,
2013-02-01 20:58:00,15.5,11.3,30.26,SSW,202,8.0,12.0,83,0.00,,,0.00,Wunderground v.1.15,2013-02-02 02:58:00,
2013-02-01 21:04:00,15.5,11.5,30.26,SSW,207,7.0,8.0,84,0.00,,,0.00,Wunderground v.1.15,2013-02-02 03:04:00,
2013-02-01 21:06:00,15.5,11.8,30.26,SSW,198,7.0,8.0,85,0.00,,,0.00,Wunderground v.1.15,2013-02-02 03:06:00,
2013-02-01 21:12:00,15.6,11.9,30.26,SSW,210,7.0,8.0,85,0.00,,,0.00,Wunderground v.1.15,2013-02-02 03:12:00,
2013-02-01 21:18:00,15.7,12.5,30.26,SSW,195,7.0,8.0,87,0.00,,,0.00,Wunderground v.1.15,2013-02-02 03:18:00,
2013-02-01 21:22:00,15.8,12.6,30.26,SSE,153,6.0,7.0,87,0.00,,,0.00,Wunderground v.1.15,2013-02-02 03:22:00,
2013-02-01 21:24:00,15.8,12.6,30.26,SSW,194,6.0,8.0,87,0.00,,,0.00,Wunderground v.1.15,2013-02-02 03:24:00,
2013-02-01 21:26:00,15.8,12.6,30.26,SSW,198,7.0,8.0,87,0.00,,,0.00,Wunderground v.1.15,2013-02-02 03:26:00,
2013-02-01 21:28:00,15.8,12.6,30.26,WSW,250,7.0,8.0,87,0.00,,,0.00,Wunderground v.1.15,2013-02-02 03:28:00,
2013-02-01 21:32:00,15.9,12.7,30.25,SSW,208,7.0,9.0,87,0.00,,,0.00,Wunderground v.1.15,2013-02-02 03:32:00,
2013-02-01 21:36:00,15.9,12.7,30.25,SSE,168,7.0,9.0,87,0.00,,,0.00,Wunderground v.1.15,2013-02-02 03:36:00,
2013-02-01 21:38:00,15.9,12.7,30.25,SSW,206,7.0,9.0,87,0.00,,,0.00,Wunderground v.1.15,2013-02-02 03:38:00,
2013-02-01 21:42:00,15.9,12.7,30.25,SW,224,6.0,7.0,87,0.00,,,0.00,Wunderground v.1.15,2013-02-02 03:42:00,
2013-02-01 21:44:00,16.0,12.8,30.25,SSW,195,6.0,8.0,87,0.00,,,0.00,Wunderground v.1.15,2013-02-02 03:44:00,
2013-02-01 21:48:00,16.0,12.8,30.25,SSE,159,6.0,9.0,87,0.00,,,0.00,Wunderground v.1.15,2013-02-02 03:48:00,
2013-02-01 21:50:00,16.0,12.8,30.25,South,186,6.0,7.0,87,0.00,,,0.00,Wunderground v.1.15,2013-02-02 03:50:00,
2013-02-01 21:56:00,16.0,12.8,30.25,South,191,7.0,9.0,87,0.00,,,0.00,Wunderground v.1.15,2013-02-02 03:56:00,
2013-02-01 21:58:00,16.0,12.8,30.25,SSE,159,7.0,9.0,87,0.00,,,0.00,Wunderground v.1.15,2013-02-02 03:58:00,
2013-02-01 22:00:00,16.1,12.7,30.25,SSE,167,7.0,7.0,86,0.00,,,0.00,Wunderground v.1.15,2013-02-02 04:00:00,
2013-02-01 22:06:00,16.2,12.7,30.24,South,172,7.0,9.0,86,0.00,,,0.00,Wunderground v.1.15,2013-02-02 04:06:00,
2013-02-01 22:08:00,16.2,12.7,30.24,South,177,6.0,9.0,86,0.00,,,0.00,Wunderground v.1.15,2013-02-02 04:08:00,
2013-02-01 22:12:00,16.2,12.7,30.24,South,170,5.0,7.0,86,0.00,,,0.00,Wunderground v.1.15,2013-02-02 04:12:00,
2013-02-01 22:14:00,16.3,12.8,30.24,SE,146,5.0,7.0,86,0.00,,,0.00,Wunderground v.1.15,2013-02-02 04:14:00,
2013-02-01 22:20:00,16.3,12.8,30.24,SSE,155,4.0,4.0,86,0.00,,,0.00,Wunderground v.1.15,2013-02-02 04:20:00,
2013-02-01 22:22:00,16.3,13.1,30.24,South,169,4.0,7.0,87,0.00,,,0.00,Wunderground v.1.15,2013-02-02 04:22:00,
2013-02-01 22:26:00,16.3,13.1,30.24,SSE,160,4.0,7.0,87,0.00,,,0.00,Wunderground v.1.15,2013-02-02 04:26:00,
2013-02-01 22:28:00,16.3,13.1,30.24,SSE,148,4.0,7.0,87,0.00,,,0.00,Wunderground v.1.15,2013-02-02 04:28:00,
2013-02-01 22:30:00,16.4,13.2,30.24,South,172,4.0,7.0,87,0.00,,,0.00,Wunderground v.1.15,2013-02-02 04:30:00,
2013-02-01 22:32:00,16.4,13.2,30.24,SSE,159,4.0,7.0,87,0.00,,,0.00,Wunderground v.1.15,2013-02-02 04:32:00,
2013-02-01 22:36:00,16.4,13.2,30.24,SE,145,3.0,7.0,87,0.00,,,0.00,Wunderground v.1.15,2013-02-02 04:36:00,
2013-02-01 22:38:00,16.4,13.5,30.24,SSE,166,3.0,7.0,88,0.00,,,0.00,Wunderground v.1.15,2013-02-02 04:38:00,
2013-02-01 22:40:00,16.4,13.5,30.24,SE,132,3.0,3.0,88,0.00,,,0.00,Wunderground v.1.15,2013-02-02 04:40:00,
2013-02-01 22:42:00,16.5,13.6,30.24,SSE,148,3.0,7.0,88,0.00,,,0.00,Wunderground v.1.15,2013-02-02 04:42:00,
2013-02-01 22:46:00,16.5,13.6,30.23,SE,144,3.0,7.0,88,0.00,,,0.00,Wunderground v.1.15,2013-02-02 04:46:00,
2013-02-01 22:48:00,16.5,13.6,30.23,SSE,160,3.0,7.0,88,0.00,,,0.00,Wunderground v.1.15,2013-02-02 04:48:00,
2013-02-01 22:52:00,16.5,13.6,30.24,South,181,4.0,7.0,88,0.00,,,0.00,Wunderground v.1.15,2013-02-02 04:52:00,
2013-02-01 22:56:00,16.5,13.8,30.23,South,184,5.0,7.0,89,0.00,,,0.00,Wunderground v.1.15,2013-02-02 04:56:00,
2013-02-01 22:58:00,16.6,13.9,30.23,SSE,160,5.0,7.0,89,0.00,,,0.00,Wunderground v.1.15,2013-02-02 04:58:00,
2013-02-01 23:00:00,16.6,13.9,30.24,SSE,152,5.0,7.0,89,0.00,,,0.00,Wunderground v.1.15,2013-02-02 05:00:00,
2013-02-01 23:02:00,16.6,13.9,30.24,SSE,166,5.0,7.0,89,0.00,,,0.00,Wunderground v.1.15,2013-02-02 05:02:00,
2013-02-01 23:06:00,16.6,14.2,30.23,SSE,162,6.0,9.0,90,0.00,,,0.00,Wunderground v.1.15,2013-02-02 05:06:00,
2013-02-01 23:08:00,16.6,13.9,30.23,SSE,155,6.0,9.0,89,0.00,,,0.00,Wunderground v.1.15,2013-02-02 05:08:00,
2013-02-01 23:10:00,16.7,14.0,30.23,SSE,156,7.0,7.0,89,0.00,,,0.00,Wunderground v.1.15,2013-02-02 05:10:00,
2013-02-01 23:14:00,16.7,14.0,30.23,South,175,7.0,7.0,89,0.00,,,0.00,Wunderground v.1.15,2013-02-02 05:14:00,
2013-02-01 23:16:00,16.8,14.1,30.23,SSW,204,7.0,7.0,89,0.00,,,0.00,Wunderground v.1.15,2013-02-02 05:16:00,
2013-02-01 23:18:00,16.8,14.1,30.23,South,178,7.0,8.0,89,0.00,,,0.00,Wunderground v.1.15,2013-02-02 05:18:00,
2013-02-01 23:20:00,16.8,14.1,30.23,South,190,7.0,7.0,89,0.00,,,0.00,Wunderground v.1.15,2013-02-02 05:20:00,
2013-02-01 23:22:00,16.8,14.1,30.23,South,173,6.0,7.0,89,0.00,,,0.00,Wunderground v.1.15,2013-02-02 05:22:00,
2013-02-01 23:28:00,16.9,14.5,30.23,South,188,6.0,8.0,90,0.00,,,0.00,Wunderground v.1.15,2013-02-02 05:28:00,
2013-02-01 23:32:00,17.0,14.6,30.23,South,184,7.0,7.0,90,0.00,,,0.00,Wunderground v.1.15,2013-02-02 05:32:00,
2013-02-01 23:34:00,17.0,14.6,30.22,South,181,7.0,7.0,90,0.00,,,0.00,Wunderground v.1.15,2013-02-02 05:34:00,
2013-02-01 23:36:00,17.0,14.6,30.22,South,169,7.0,7.0,90,0.00,,,0.00,Wunderground v.1.15,2013-02-02 05:36:00,
2013-02-01 23:38:00,17.0,14.6,30.22,South,179,7.0,7.0,90,0.00,,,0.00,Wunderground v.1.15,2013-02-02 05:38:00,
2013-02-01 23:40:00,17.0,14.6,30.22,South,179,7.0,9.0,90,0.00,,,0.00,Wunderground v.1.15,2013-02-02 05:40:00,
2013-02-01 23:46:00,17.1,14.7,30.22,South,171,7.0,10.0,90,0.00,,,0.00,Wunderground v.1.15,2013-02-02 05:46:00,
2013-02-01 23:52:00,17.2,15.0,30.21,South,187,7.0,8.0,91,0.00,,,0.00,Wunderground v.1.15,2013-02-02 05:52:00,
2013-02-01 23:54:00,17.2,15.0,30.21,South,183,8.0,8.0,91,0.00,,,0.00,Wunderground v.1.15,2013-02-02 05:54:00,